Weather History for KTCM - April, 2013

Change the Weather History Date:

Saturday, April 20, 2013

  Actual Average Record
Temperature  
Mean Temperature 51 °F -  
Max Temperature 57 °F 57 °F 75 °F (1956)
Min Temperature 45 °F 37 °F 27 °F (1961)
Degree Days  
Heating Degree Days 14    
Growing Degree Days 1 (Base 50)    
Moisture  
Dew Point 44 °F    
Average Humidity 81    
Maximum Humidity 93    
Minimum Humidity 59    
Precipitation  
Precipitation 0.00 in - - ()
Sea Level Pressure  
Sea Level Pressure 30.28 in    
Wind  
Wind Speed 11 mph (SSW)    
Max Wind Speed 17 mph    
Max Gust Speed 23 mph    
Visibility 10 miles    
Events Rain    
Averages and records for this station are not official NWS values.
T = Trace of Precipitation, MM = Missing Value Source: NWS Daily Summary

Daily Weather History Graph

Daily Weather History Graph

Search for Another Location

Airport or City:

Trip Planner

Search our weather history database for the weather conditions in past years. The results will help you decide how hot, cold, wet, or windy it might be!

Date:

Astronomy

Apr. 20, 2013 Rise Set
Actual Time 6:12 AM PDT 8:06 PM PDT
Civil Twilight 5:39 AM PDT 8:38 PM PDT
Nautical Twilight 4:59 AM PDT 9:19 PM PDT
Astronomical Twilight 4:15 AM PDT 10:03 PM PDT
Moon 2:36 PM PDT (4/20) 3:25 AM PDT (4/20)
Length of Visible Light 14h 59m
Length of Day
13h 54m
Waxing Gibbous, 72% of the Moon is Illuminated
Apr 20
Waxing Gibbous
Apr 25
Full
May 2
Last Quarter
May 9
New
May 17
First Quarter

Hourly Weather History & Observations

Time (PDT) Temp. Windchill Dew Point Humidity Pressure Visibility Wind Dir Wind Speed Gust Speed Precip Events Conditions
12:58 AM 47.3 °F - 45.3 °F 93% 30.25 in 10.0 mi SSW 10.4 mph - N/A   Mostly Cloudy
1:58 AM 48.0 °F - 45.5 °F 91% 30.26 in 10.0 mi SSW 11.5 mph - N/A   Overcast
2:58 AM 47.7 °F - 44.4 °F 89% 30.26 in 10.0 mi SSW 10.4 mph 18.4 mph N/A   Overcast
3:08 AM 48.2 °F - 44.6 °F 87% 30.24 in 10.0 mi South 11.5 mph - N/A   Overcast
3:28 AM 48.2 °F - 44.6 °F 87% 30.24 in 10.0 mi SSW 9.2 mph - N/A   Overcast
3:58 AM 46.9 °F - 44.2 °F 90% 30.27 in 10.0 mi SSW 10.4 mph - N/A   Overcast
4:38 AM 46.4 °F 41.5 °F 44.6 °F 93% 30.25 in 10.0 mi South 10.4 mph - N/A   Overcast
4:43 AM 46.4 °F 41.9 °F 44.6 °F 93% 30.25 in 10.0 mi SSW 9.2 mph - N/A   Overcast
4:58 AM 46.6 °F - 44.4 °F 92% 30.28 in 10.0 mi SSW 9.2 mph - N/A   Overcast
5:43 AM 46.4 °F 41.9 °F 44.6 °F 93% 30.26 in 10.0 mi South 9.2 mph - N/A   Overcast
5:58 AM 45.9 °F 40.8 °F 44.1 °F 93% 30.29 in 10.0 mi South 10.4 mph - N/A   Overcast
6:33 AM 46.4 °F 40.1 °F 42.8 °F 87% 30.26 in 10.0 mi South 15.0 mph - N/A   Scattered Clouds
6:58 AM 45.9 °F 40.8 °F 43.5 °F 92% 30.28 in 10.0 mi SSW 10.4 mph - N/A   Clear
7:33 AM 46.4 °F 40.7 °F 42.8 °F 87% 30.27 in 10.0 mi SSW 12.7 mph - N/A   Mostly Cloudy
7:58 AM 47.3 °F - 43.7 °F 87% 30.29 in 10.0 mi SSW 13.8 mph 19.6 mph N/A   Overcast
8:18 AM 48.2 °F - 42.8 °F 82% 30.27 in 10.0 mi SSW 15.0 mph - N/A   Overcast
8:33 AM 48.2 °F - 44.6 °F 87% 30.27 in 10.0 mi South 11.5 mph - N/A   Overcast
8:58 AM 48.6 °F - 43.7 °F 83% 30.29 in 10.0 mi SSW 11.5 mph - N/A   Overcast
9:58 AM 50.0 °F - 44.4 °F 81% 30.30 in 10.0 mi SSW 12.7 mph - N/A   Overcast
10:58 AM 50.7 °F - 44.2 °F 78% 30.31 in 10.0 mi SSW 10.4 mph - N/A   Overcast
11:08 AM 51.8 °F - 44.6 °F 76% 30.29 in 10.0 mi SSW 11.5 mph - N/A   Overcast
11:13 AM 51.8 °F - 44.6 °F 76% 30.29 in 10.0 mi SSW 12.7 mph - N/A   Overcast
11:58 AM 51.6 °F - 44.2 °F 76% 30.32 in 10.0 mi SW 8.1 mph - N/A   Overcast
12:58 PM 54.0 °F - 44.8 °F 71% 30.30 in 10.0 mi SSW 9.2 mph - N/A   Overcast
1:03 PM 53.6 °F - 44.6 °F 72% 30.28 in 10.0 mi SSW 6.9 mph - N/A Rain Light Rain
1:12 PM 53.6 °F - 44.6 °F 72% 30.28 in 10.0 mi WSW 10.4 mph - N/A   Overcast
1:22 PM 53.6 °F - 44.6 °F 72% 30.28 in 10.0 mi SW 9.2 mph - N/A Rain Light Rain
1:31 PM 53.6 °F - 44.6 °F 72% 30.28 in 10.0 mi WSW 8.1 mph - N/A   Overcast
1:58 PM 54.5 °F - 45.1 °F 71% 30.29 in 10.0 mi WSW 8.1 mph - 0.00 in   Mostly Cloudy
2:03 PM 55.4 °F - 44.6 °F 67% 30.27 in 10.0 mi SW 10.4 mph - N/A   Overcast
2:08 PM 53.6 °F - 44.6 °F 72% 30.27 in 10.0 mi SW 8.1 mph - N/A   Overcast
2:58 PM 56.3 °F - 43.7 °F 63% 30.29 in 10.0 mi WSW 11.5 mph - N/A   Overcast
3:58 PM 56.8 °F - 43.0 °F 60% 30.28 in 10.0 mi SW 12.7 mph - N/A   Overcast
4:58 PM 57.2 °F - 43.2 °F 59% 30.28 in 10.0 mi WSW 15.0 mph 23.0 mph N/A   Clear
5:58 PM 55.0 °F - 43.2 °F 64% 30.28 in 10.0 mi SW 12.7 mph 19.6 mph N/A   Scattered Clouds
6:58 PM 52.7 °F - 42.4 °F 68% 30.27 in 10.0 mi SW 17.3 mph 23.0 mph N/A   Partly Cloudy
7:58 PM 50.0 °F - 42.3 °F 75% 30.28 in 10.0 mi SW 13.8 mph - N/A   Clear
8:58 PM 48.7 °F - 43.2 °F 81% 30.29 in 10.0 mi South 6.9 mph - N/A   Clear
9:58 PM 47.1 °F - 43.2 °F 86% 30.31 in 10.0 mi SSW 9.2 mph - N/A   Scattered Clouds
10:08 PM 48.2 °F - 42.8 °F 82% 30.29 in 10.0 mi SSW 10.4 mph - N/A   Mostly Cloudy
10:58 PM 47.3 °F - 43.7 °F 87% 30.31 in 10.0 mi South 9.2 mph - N/A   Overcast
11:23 PM 46.4 °F 41.9 °F 42.8 °F 87% 30.29 in 10.0 mi South 9.2 mph - N/A   Overcast
11:33 PM 46.4 °F 41.9 °F 42.8 °F 87% 30.29 in 10.0 mi South 9.2 mph - N/A   Overcast
11:43 PM 46.4 °F 41.9 °F 42.8 °F 87% 30.29 in 10.0 mi SSW 9.2 mph - N/A   Overcast
11:58 PM 46.6 °F - 43.0 °F 87% 30.31 in 10.0 mi SSW 10.4 mph - N/A   Overcast